Regional Weather Roundup
Issued by NWS

Home | Current Version | Previous Version | Graphics & Text | Print | Product List | Glossary Off
Versions: 1 2 3 4 5 6 7 8 9 10 11 12 13 14 15 16 17 18 19 20 21 22 23 24 25 26 27 28 29 30 31 32 33 34 35 36 37 38 39 40 41 42 43 44 45 46 47 48 49 50

000
ASUS43 KDMX 221106
RWRIA

WEATHER ROUNDUP FOR IOWA
NATIONAL WEATHER SERVICE DES MOINES IA
600 AM CDT FRI SEP 22 2017

NOTE: "FAIR" INDICATES FEW OR NO CLOUDS BELOW 12,000 FEET WITH NO
SIGNIFICANT WEATHER AND/OR OBSTRUCTIONS TO VISIBILITY.

* - THESE STATIONS ARE NOT NWS STATIONS...THUS NOT UNDER NWS
QUALITY CONTROL.  THEY ALSO DO NOT REPORT WEATHER SUCH
AS PRECIPITATION OR FOG.

IAZ001>003-012>014-020>022-031>034-043>046-221200-
   NORTHWEST IOWA

CITY           SKY/WX    TMP DP  RH WIND       PRES   REMARKS
CARROLL *      PTCLDY    77  72  83 S15G22    29.85S
CHEROKEE *     CLEAR     75  72  90 S12       29.81S
DENISON *      CLEAR     75  70  83 S13G23    29.85S
LE MARS *      CLEAR     77  72  83 S18G25    29.76S
ORANGE CITY *  CLEAR     75  73  94 S13       29.78S
SHELDON *      PTCLDY    75  72  88 S12G21    29.77S
SIOUX CITY     CLEAR     75  72  90 SE10      29.77S
SPENCER        CLEAR     74  71  91 S13       29.81S
STORM LAKE *   PTCLDY    75  70  83 S16G26    29.83S
$$

IAZ055>058-069>071-079>083-090>094-221200-
   SOUTHWEST IOWA

CITY           SKY/WX    TMP DP  RH WIND       PRES   REMARKS
ATLANTIC *     CLEAR     75  72  88 S9G17     29.87F
AUDUBON *      CLEAR     75  70  83 S13       29.88F
CLARINDA *     PTCLDY    75  72  88 S9        29.91S
COUNCIL BLFS * PTCLDY    75  73  94 S13       29.85S
CRESTON *      CLEAR     73  70  88 S12       29.93S
HARLAN  *      CLEAR     77  72  83 S13G20    29.89S
LAMONI         CLEAR     72  70  93 S8        29.94S
RED OAK *      PTCLDY    77  70  78 S10       29.87S
SHENANDOAH *   CLEAR     77  70  78 S12       29.87S
$$

IAZ047>049-059>061-072>074-084-221200-
   CENTRAL IOWA

CITY           SKY/WX    TMP DP  RH WIND       PRES   REMARKS
AMES           CLEAR     70  70 100 SE7       29.90S
ANKENY *       CLEAR     73  68  83 SE7       29.92R
BOONE *        CLEAR     75  70  83 S6        29.89S
CHARITON *     CLEAR     72  68  88 S9        29.94S
DES MOINES     PTCLDY    77  69  76 SE9       29.90S
GRINNELL*      CLEAR     73  68  84 S9        29.96S
KNOXVILLE *    PTCLDY    72  68  88 SE8       29.93S
MARSHALLTOWN   CLEAR     73  70  90 SE12      29.92S
NEWTON *       CLEAR     72  68  88 SE13      29.94S
PELLA *        CLEAR     73  67  82 SE6       29.96R
PERRY *          N/A     76  72  86 S9        29.88F
$$

IAZ004>006-015-016-023>025-035-036-221200-
   NORTH CENTRAL IOWA

CITY           SKY/WX    TMP DP  RH WIND       PRES   REMARKS
ALGONA *       CLEAR     75  73  94 S12       29.85F
CLARION *      CLEAR     73  72  94 S12       29.88S
ESTHERVILLE    CLEAR     71  71 100 S10       29.82S
FORT DODGE *   CLEAR     77  70  79 S13G18    29.87S
MASON CITY     CLEAR     71  67  87 S10       29.90S
FOREST CITY *    N/A     72  70  94 S10       29.88S
WEBSTER CITY * CLEAR     73  70  88 S9        29.86S
IOWA FALLS *     N/A     72  69  89 SE9       29.92S
$$

IAZ007>011-017>019-026>030-037>042-050>054-066-221200-
   NORTHEAST IOWA

CITY           SKY/WX    TMP DP  RH WIND       PRES   REMARKS
CEDAR RAPIDS   CLEAR     72  68  87 S7        29.97S
CHARLES CITY * PTCLDY    73  72  94 S10       29.92S
CLINTON *      CLEAR    N/A N/A N/A S7        30.02S
DECORAH *      CLEAR     73  68  83 S8G17     29.94S
DUBUQUE        CLEAR     69  67  93 S7        30.00S
MONTICELLO *   CLEAR     70  68  94 S6        29.99R
OELWEIN *      MOCLDY    73  70  88 S12G18    29.96S
WATERLOO       CLEAR     73  68  84 S12       29.93R
$$

IAZ064-065-067-068-078-221200-
   EAST CENTRAL IOWA

CITY           SKY/WX    TMP DP  RH WIND       PRES   REMARKS
DAVENPORT      CLEAR     72  67  84 S7        30.03S
IOWA CITY      CLEAR     72  68  87 SE3       29.99S
MT. PLEASANT * CLEAR     70  67  89 S6        30.00S
MUSCATINE *    FOG       66  64  94 CALM      30.00S VSB 1/4
QUAD CITIES    CLEAR     72  67  84 VRB3      30.01R
$$

IAZ062-063-075>077-085>089-095>099-221200-
   SOUTHEAST IOWA

CITY           SKY/WX    TMP DP  RH WIND       PRES   REMARKS
BURLINGTON     CLEAR     70  68  93 S5        30.01R
FAIRFIELD *    CLEAR     73  68  83 S9G15     29.98S
FORT MADISON * CLEAR     72  68  88 S3        30.02R
KEOKUK *       CLEAR     75  68  78 S8G14     30.00S
OSKALOOSA *      N/A     70  67  91 S6        29.97S
OTTUMWA        CLEAR     74  68  81 S8        29.97R
WASHINGTON *   PTCLDY    72  70  94 S5        30.00S
$$

ABBREVIATIONS USED IN REMARKS
   TC - TEMPERATURES IN CELSIUS
  WCI - WIND CHILL INDEX
   HX - HEAT INDEX
  VSB - VISIBILITY
$$





USA.gov is the U.S. government's official web portal to all federal, state and local government web resources and services.